Angleton, TX

7:15 AM CDT on August 25, 2019 (GMT -0500)
Brazoria County

Weather History for KLBX - June, 2019

Change the Weather History Date:

Saturday, June 1, 2019

  Actual Average Record
Temperature  
Mean Temperature 81 °F -  
Max Temperature 90 °F 86 °F 93 °F (1998)
Min Temperature 72 °F 69 °F 63 °F (2015)
Cooling Degree Days 16    
Growing Degree Days 31 (Base 50)    
Moisture  
Dew Point 72 °F    
Average Humidity 81    
Maximum Humidity 97    
Minimum Humidity 55    
Precipitation  
Precipitation 0.00 in - - ()
Sea Level Pressure  
Sea Level Pressure 29.94 in    
Wind  
Wind Speed 3 mph (East)    
Max Wind Speed 12 mph    
Max Gust Speed 17 mph    
Visibility 9 miles    
Events      
Averages and records for this station are not official NWS values.
T = Trace of Precipitation, MM = Missing Value Source: NWS Daily Summary

Daily Weather History Graph

Daily Weather History Graph

Search for Another Location

Airport or City:

Astronomy

Jun. 01, 2019 Rise Set
Actual Time 6:23 AM CDT 8:16 PM CDT
Civil Twilight 5:56 AM CDT 8:43 PM CDT
Nautical Twilight 5:24 AM CDT 9:15 PM CDT
Astronomical Twilight 4:50 AM CDT 9:49 PM CDT
Moon 5:14 AM CDT (6/1) 6:41 PM CDT (6/1)
Length of Visible Light 14h 46m
Length of Day
13h 53m
Waning Crescent, 4% of the Moon is Illuminated
Jun 1
Waning Crescent
Jun 3
New
Jun 10
First Quarter
Jun 17
Full
Jun 25
Last Quarter

Hourly Weather History & Observations

Time (CDT) Temp. Heat Index Dew Point Humidity Pressure Visibility Wind Dir Wind Speed Gust Speed Precip Events Conditions
12:18 AM 73.9 °F - 73.0 °F 97% 29.97 in 8.0 mi NNW 3.5 mph - N/A   Mostly Cloudy
12:29 AM 73.9 °F - 72.0 °F 93% 29.97 in 9.0 mi North 5.8 mph - N/A   Scattered Clouds
12:53 AM 73.0 °F - 72.0 °F 96% 29.97 in 8.0 mi Calm Calm - N/A   Partly Cloudy
1:21 AM 73.0 °F - 72.0 °F 96% 29.96 in 9.0 mi Calm Calm - N/A   Mostly Cloudy
1:29 AM 73.0 °F - 72.0 °F 96% 29.96 in 9.0 mi North 3.5 mph - N/A   Partly Cloudy
1:53 AM 73.0 °F - 71.1 °F 93% 29.95 in 9.0 mi North 3.5 mph - N/A   Clear
2:53 AM 73.0 °F - 72.0 °F 96% 29.93 in 7.0 mi Calm Calm - N/A   Clear
3:53 AM 72.0 °F - 70.0 °F 93% 29.93 in 9.0 mi Calm Calm - N/A   Partly Cloudy
4:53 AM 72.0 °F - 71.1 °F 97% 29.92 in 5.0 mi North 3.5 mph - N/A   Clear
5:53 AM 72.0 °F - 71.1 °F 97% 29.92 in 8.0 mi Calm Calm - N/A   Clear
6:28 AM 72.0 °F - 70.0 °F 93% 29.91 in 2.5 mi Calm Calm - N/A   Clear
6:39 AM 72.0 °F - 70.0 °F 93% 29.92 in 5.0 mi Calm Calm - N/A   Clear
6:53 AM 72.0 °F - 71.1 °F 97% 29.92 in 6.0 mi Calm Calm - N/A   Clear
7:53 AM 77.0 °F - 73.9 °F 90% 29.94 in 10.0 mi Calm Calm - N/A   Clear
8:53 AM - - - N/A% 29.97 in 10.0 mi Calm Calm - N/A   Clear
9:53 AM - - - N/A% 29.98 in 10.0 mi Calm Calm - N/A   Partly Cloudy
10:24 AM 84.9 °F 92.1 °F 73.9 °F 69% 29.97 in 10.0 mi WNW 4.6 mph - N/A   Mostly Cloudy
10:39 AM 84.0 °F 91.2 °F 73.9 °F 72% 29.97 in 8.0 mi Calm Calm - N/A   Scattered Clouds
10:53 AM 86.0 °F 93.0 °F 73.0 °F 65% 29.97 in 9.0 mi NW 4.6 mph - N/A   Partly Cloudy
11:53 AM 88.0 °F 95.6 °F 73.0 °F 61% 29.97 in 10.0 mi North 5.8 mph - N/A   Scattered Clouds
12:53 PM 89.1 °F 96.0 °F 72.0 °F 57% 29.96 in 10.0 mi NE 4.6 mph - N/A   Partly Cloudy
1:53 PM 89.1 °F 98.0 °F 73.9 °F 61% 29.95 in 10.0 mi SSE 6.9 mph - N/A   Scattered Clouds
2:53 PM 90.0 °F 96.9 °F 72.0 °F 55% 29.94 in 10.0 mi SSE 11.5 mph - N/A   Scattered Clouds
3:53 PM 89.1 °F 96.0 °F 72.0 °F 57% 29.92 in 10.0 mi South 10.4 mph - N/A   Scattered Clouds
4:53 PM 89.1 °F 96.0 °F 72.0 °F 57% 29.91 in 10.0 mi SSE 5.8 mph 17.3 mph N/A   Partly Cloudy
5:53 PM 88.0 °F 94.7 °F 72.0 °F 59% 29.89 in 10.0 mi SSE 8.1 mph - N/A   Partly Cloudy
6:53 PM 84.9 °F 91.4 °F 73.0 °F 67% 29.87 in 10.0 mi SE 6.9 mph - N/A   Clear
7:53 PM 82.9 °F 88.8 °F 73.0 °F 72% 29.87 in 10.0 mi SE 6.9 mph - N/A   Clear
8:53 PM 80.1 °F 84.2 °F 73.0 °F 79% 29.88 in 10.0 mi SE 5.8 mph - N/A   Clear
9:53 PM 78.1 °F - 73.9 °F 87% 29.91 in 10.0 mi Calm Calm - N/A   Clear
10:53 PM - - - N/A% 29.93 in 10.0 mi South 3.5 mph - N/A   Clear
11:53 PM 75.9 °F - 73.0 °F 91% 29.91 in 10.0 mi Calm Calm - N/A   Clear